Вернуться в каталог

STARLINK-4695

АктивенСвязьVLEO
NORAD 53718·PAYLOAD·🇺🇸 United States

Запущен Sep 5, 2022 с Cape Canaveral Space Force Station

Loading…

Ближайшие Пролёты (ближайшие 24 часа)

TLE

СвежийSource: CelesTrak SupGP

Эпоха: Sep 14, 2026, 21:45 UTC

1 53718C 22107U   26257.90673611 -.00020280  00000+0 -65219-3 0  2577
2 53718  53.1567 113.8311 0001332  90.6127 312.3438 15.31709897    10

Отслеживайте STARLINK-4695 в реальном времени с AllMySat

Download on the App Store